Location: Antist
(43.1184°N, 0.1270°E)
Time: 16:42:07
(UTC+00:00)

Cosmos 2297 Rocket - Pass Details

Date: 19 January 2020
Orbit: 838 x 845 km, 71.0° (Epoch: 21 February)

Event Time Altitude Azimuth Distance (km) Brightness Sun altitude
Rises 18:51:40 0° 202° (SSW) 3,377 5.8 -21.1°
Reaches altitude 10° 18:54:05 10° 203° (SSW) 2,448 5.0 -21.6°
Maximum altitude 18:59:43 89° 121° (ESE) 847 2.1 -22.6°
Enters shadow 19:02:31 32° 25° (NNE) 1,426 3.1 -23.1°
